Location: Borea
(45.6167°N, 23.0167°E)
Time: 21:11:34
(UTC+00:00)

Meteor 1-27 - Pass Details

Date: 03 February 2023
Orbit: 837 x 892 km, 81.3° (Epoch: 22 March)

Event Time Altitude Azimuth Distance (km) Brightness Sun altitude
Rises 17:12:55 0° 349° (N) 3,498 7.5 -17.1°
Reaches altitude 10° 17:15:23 10° 351° (N) 2,548 6.7 -17.5°
Maximum altitude 17:21:12 81° 79° (E) 887 4.2 -18.5°
Drops below altitude 10° 17:26:53 10° 167° (SSE) 2,493 6.6 -19.5°
Sets 17:29:17 0° 169° (SSE) 3,417 7.3 -19.9°
